COSMOS 2499 DEB, 55725

Orbit data source: Space-Track

COSMOS 2499 DEB, 55725 is space debris in LEO originally from a launch on Fri, 23 May 2014 UTC launched from the Plesetsk Missile And Space Complex (PKMTR). Debris objects in space refer to the collection of defunct objects orbiting the Earth. Examples of debris include non-operational satellites, rocket bodies, and fragments generated from explosions, collisions, or faulty payload assembly.

Loading next visibility...
Identifier
55725, 2014-028AM
Orbit
LEO
Country
Flag of CISCIS
Related business
Manufacturer
TsNIIKhM
Mission
Spacecraft
Bus & Motor
Unknown
Mass
Unknown
Launch date (UTC)
2014-05-23 (12 years ago)
Launch vehicle
Unknown
Launch site
Plesetsk Missile And Space Complex (PKMTR)
Object type
Payload
Rocket body
Debris
Shape & HBR
Unknown shape, 0.1 m
Radar Cross Section
Small (<0.1 m²)

Expand to show TLE details & history
Last TLE update: 1 week ago

TLE from 1 week ago
0 COSMOS 2499 DEB
1 55725U 14028AM  25342.74722515  .00012685  00000-0  29446-1 0  9996
2 55725  82.2958 340.2779 0278804 359.1737   0.8883 13.11418173137497
Epoch: 2025-12-08T17:56Z
TLE epoch observation values (Epoch: 2025-12-08T17:56:00.252Z)
Latitude
-0.00004°
Longitude
-6.46498°
Altitude
1,008.687 km
Speed
7.449 km/s
True Right ascension
22h 41m 06s
True Declination
0° 00' 00"
Sunlit
Object was in daylight at epoch
Visualization orbit readout
Latitude
Unknown
Longitude
Unknown
Altitude
Unknown
Speed
Unknown
Apparent Right ascension
Unknown
Apparent Declination
Unknown
Sunlit
N/A
Visualization observer readout
Local Sidereal Time
03:22:58
Azimuth
Unknown
Elevation
Unknown
Doppler factor
Unknown
Orbital elements
Apogee altitude
1,426.635 km
Perigee altitude
1,003.239 km
Semi-major axis
7,593.074 km
Eccentricity
0.02788
Inclination
82.2958°
RAAN
340.2779°
Arg. of periapsis
359.1737°
True anomaly
0.93962°
Mean anomaly
0.8883°
Eccentric anomaly
0.91378°
Mean motion
3.28032 °/min
Orbital period
109.75 mins
BSTAR
0.029446
Loading maneuver chart data...
Computing Atmospheric mass density...
Loading historical data...
Loading historical data...
Loading historical data...
Loading historical data...
Loading historical data...
Loading historical data...
Loading historical data...

Documentation

Showing up to 5 results
|